Time,TemperatureF,DewpointF,PressureIn,WindDirection,WindDirectionDegrees,WindSpeedMPH,WindSpeedGustMPH,Humidity,HourlyPrecipIn,Conditions,Clouds,dailyrainin,SoftwareType,DateUTC
2013-06-06 03:49:00,65.3,62.2,30.06,SW,225,7.0,-999.0,90,-99.99,,,0.01,meteohub,2013-06-06 07:49:00,
2013-06-06 03:50:00,65.3,62.2,30.06,SW,225,7.0,-999.0,90,-99.99,,,0.01,meteohub,2013-06-06 07:50:00,
2013-06-06 03:51:00,65.3,62.6,30.05,NE,45,7.0,-999.0,91,-99.99,,,0.01,meteohub,2013-06-06 07:51:00,
2013-06-06 03:56:00,64.8,62.4,30.05,NW,315,2.0,8.0,92,0.01,,,0.02,meteohub,2013-06-06 07:56:00,
2013-06-06 04:01:00,64.6,62.4,30.05,SE,135,4.0,8.0,93,0.01,,,0.02,meteohub,2013-06-06 08:01:00,
2013-06-06 04:06:00,64.6,62.4,30.05,SE,135,4.0,8.0,93,0.01,,,0.02,meteohub,2013-06-06 08:06:00,
2013-06-06 04:11:00,63.9,61.9,30.05,NE,45,1.0,4.0,93,0.01,,,0.02,meteohub,2013-06-06 08:11:00,
2013-06-06 04:16:00,63.7,61.9,30.05,North,0,1.0,4.0,94,0.01,,,0.02,meteohub,2013-06-06 08:16:00,
2013-06-06 04:21:00,63.5,61.7,30.05,North,0,2.0,4.0,94,0.01,,,0.02,meteohub,2013-06-06 08:21:00,
2013-06-06 04:26:00,63.5,61.7,30.04,NW,315,1.0,2.0,94,0.02,,,0.04,meteohub,2013-06-06 08:26:00,
2013-06-06 04:31:00,63.3,61.9,30.05,West,270,2.0,2.0,95,0.02,,,0.04,meteohub,2013-06-06 08:31:00,
2013-06-06 04:36:00,63.3,61.9,30.05,SSW,203,1.0,2.0,95,0.02,,,0.04,meteohub,2013-06-06 08:36:00,
2013-06-06 04:41:00,63.1,61.7,30.05,NW,315,1.0,2.0,95,0.02,,,0.04,meteohub,2013-06-06 08:41:00,
2013-06-06 04:46:00,63.1,61.7,30.04,NW,315,2.0,2.0,95,0.02,,,0.04,meteohub,2013-06-06 08:46:00,
2013-06-06 04:52:00,63.0,61.5,30.04,NW,315,2.0,3.0,95,0.04,,,0.05,meteohub,2013-06-06 08:52:00,
2013-06-06 04:57:00,63.0,61.9,30.05,East,90,2.0,3.0,96,0.02,,,0.05,meteohub,2013-06-06 08:57:00,
2013-06-06 05:02:00,63.0,61.9,30.05,East,90,1.0,3.0,96,0.02,,,0.05,meteohub,2013-06-06 09:02:00,
2013-06-06 05:07:00,63.0,61.9,30.04,NE,45,1.0,3.0,96,0.02,,,0.05,meteohub,2013-06-06 09:07:00,
2013-06-06 05:12:00,62.8,61.9,30.04,NW,315,3.0,3.0,97,0.04,,,0.06,meteohub,2013-06-06 09:12:00,
2013-06-06 05:17:00,62.8,61.9,30.04,North,0,3.0,4.0,97,0.04,,,0.06,meteohub,2013-06-06 09:17:00,
2013-06-06 05:22:00,62.8,61.9,30.04,North,0,3.0,4.0,97,0.04,,,0.06,meteohub,2013-06-06 09:22:00,
2013-06-06 05:27:00,62.6,61.7,30.04,NW,315,4.0,4.0,97,0.02,,,0.06,meteohub,2013-06-06 09:27:00,
2013-06-06 05:32:00,62.2,61.7,30.04,North,0,4.0,4.0,98,0.04,,,0.07,meteohub,2013-06-06 09:32:00,
2013-06-06 05:37:00,62.1,61.5,30.04,NNW,338,4.0,5.0,98,0.04,,,0.07,meteohub,2013-06-06 09:37:00,
2013-06-06 05:42:00,61.9,61.3,30.04,North,0,2.0,5.0,98,0.04,,,0.07,meteohub,2013-06-06 09:42:00,
2013-06-06 05:47:00,61.7,61.2,30.04,North,0,4.0,5.0,98,0.04,,,0.08,meteohub,2013-06-06 09:47:00,
2013-06-06 05:52:00,61.5,61.0,30.05,NW,315,2.0,5.0,98,0.04,,,0.08,meteohub,2013-06-06 09:52:00,
2013-06-06 05:57:00,61.3,60.8,30.04,NW,315,3.0,4.0,98,0.04,,,0.08,meteohub,2013-06-06 09:57:00,
2013-06-06 06:02:00,61.3,60.8,30.04,North,0,6.0,6.0,98,0.04,,,0.08,meteohub,2013-06-06 10:02:00,
2013-06-06 06:07:00,61.0,60.4,30.04,North,0,4.0,6.0,98,0.05,,,0.09,meteohub,2013-06-06 10:07:00,
2013-06-06 06:12:00,60.8,60.3,30.04,North,0,4.0,6.0,98,0.04,,,0.09,meteohub,2013-06-06 10:12:00,
2013-06-06 06:17:00,60.8,60.3,30.04,North,0,1.0,6.0,98,0.04,,,0.09,meteohub,2013-06-06 10:17:00,
2013-06-06 06:22:00,60.8,60.3,30.04,North,0,2.0,4.0,98,0.04,,,0.09,meteohub,2013-06-06 10:22:00,
2013-06-06 06:27:00,60.8,60.3,30.04,NE,45,1.0,4.0,98,0.04,,,0.11,meteohub,2013-06-06 10:27:00,
2013-06-06 06:32:00,60.6,60.3,30.04,North,0,2.0,2.0,99,0.04,,,0.11,meteohub,2013-06-06 10:32:00,
2013-06-06 06:37:00,60.6,60.3,30.04,West,270,2.0,2.0,99,0.04,,,0.11,meteohub,2013-06-06 10:37:00,
2013-06-06 06:42:00,60.6,60.3,30.04,NW,315,3.0,3.0,99,0.04,,,0.11,meteohub,2013-06-06 10:42:00,
2013-06-06 06:47:00,60.6,60.3,30.04,West,270,2.0,3.0,99,0.04,,,0.12,meteohub,2013-06-06 10:47:00,
2013-06-06 06:52:00,60.6,60.3,30.04,NW,315,2.0,3.0,99,0.04,,,0.12,meteohub,2013-06-06 10:52:00,
2013-06-06 06:57:00,60.6,60.3,30.04,SW,225,2.0,4.0,99,0.04,,,0.12,meteohub,2013-06-06 10:57:00,
2013-06-06 07:02:00,60.6,60.3,30.04,NW,315,2.0,4.0,99,0.05,,,0.13,meteohub,2013-06-06 11:02:00,
2013-06-06 07:07:00,60.6,60.3,30.04,NW,315,2.0,4.0,99,0.04,,,0.13,meteohub,2013-06-06 11:07:00,
2013-06-06 07:12:00,60.4,60.1,30.04,North,0,2.0,3.0,99,0.04,,,0.13,meteohub,2013-06-06 11:12:00,
2013-06-06 07:17:00,60.4,60.1,30.04,North,0,4.0,4.0,99,0.04,,,0.13,meteohub,2013-06-06 11:17:00,
2013-06-06 07:22:00,60.4,60.1,30.04,North,0,4.0,4.0,99,0.05,,,0.14,meteohub,2013-06-06 11:22:00,
2013-06-06 07:27:00,60.4,60.1,30.04,NE,45,2.0,4.0,99,0.04,,,0.14,meteohub,2013-06-06 11:27:00,
2013-06-06 07:32:00,60.4,60.1,30.04,NW,315,2.0,4.0,99,0.04,,,0.14,meteohub,2013-06-06 11:32:00,
2013-06-06 07:37:00,60.3,59.9,30.03,NNW,338,4.0,4.0,99,0.04,,,0.14,meteohub,2013-06-06 11:37:00,
2013-06-06 07:43:00,60.3,59.9,30.04,NW,315,2.0,4.0,99,0.05,,,0.15,meteohub,2013-06-06 11:43:00,
2013-06-06 07:48:00,60.3,59.9,30.04,SE,135,1.0,4.0,99,0.04,,,0.15,meteohub,2013-06-06 11:48:00,
2013-06-06 07:53:00,60.4,60.1,30.04,NW,315,2.0,4.0,99,0.04,,,0.15,meteohub,2013-06-06 11:53:00,
2013-06-06 07:58:00,60.3,59.9,30.04,South,180,1.0,2.0,99,0.05,,,0.17,meteohub,2013-06-06 11:58:00,
2013-06-06 08:03:00,60.3,59.9,30.04,SE,135,0.0,2.0,99,0.04,,,0.17,meteohub,2013-06-06 12:03:00,
2013-06-06 08:08:00,60.3,59.9,30.04,South,180,2.0,2.0,99,0.05,,,0.18,meteohub,2013-06-06 12:08:00,
2013-06-06 08:13:00,60.4,60.1,30.04,East,90,1.0,2.0,99,0.05,,,0.18,meteohub,2013-06-06 12:13:00,
2013-06-06 08:18:00,60.4,60.1,30.03,NNW,338,3.0,3.0,99,0.05,,,0.18,meteohub,2013-06-06 12:18:00,
2013-06-06 08:23:00,60.4,60.1,30.03,NW,315,2.0,4.0,99,0.04,,,0.18,meteohub,2013-06-06 12:23:00,
2013-06-06 08:28:00,60.4,60.1,30.03,NE,45,2.0,4.0,99,0.04,,,0.18,meteohub,2013-06-06 12:28:00,
2013-06-06 08:33:00,60.4,60.1,30.03,NW,315,1.0,4.0,99,0.05,,,0.19,meteohub,2013-06-06 12:33:00,
2013-06-06 08:38:00,60.4,60.1,30.03,North,0,2.0,4.0,99,0.05,,,0.19,meteohub,2013-06-06 12:38:00,
2013-06-06 08:43:00,60.4,60.1,30.03,South,180,2.0,4.0,99,0.04,,,0.19,meteohub,2013-06-06 12:43:00,
2013-06-06 08:48:00,60.6,60.3,30.03,SW,225,2.0,2.0,99,0.05,,,0.20,meteohub,2013-06-06 12:48:00,
2013-06-06 08:53:00,60.6,60.3,30.03,NW,315,1.0,2.0,99,0.05,,,0.20,meteohub,2013-06-06 12:53:00,
2013-06-06 08:58:00,60.6,60.3,30.03,NW,315,1.0,2.0,99,0.04,,,0.20,meteohub,2013-06-06 12:58:00,
2013-06-06 09:03:00,60.6,60.3,30.03,South,180,1.0,4.0,99,0.04,,,0.20,meteohub,2013-06-06 13:03:00,
2013-06-06 09:08:00,60.6,60.3,30.02,North,0,2.0,4.0,99,0.04,,,0.21,meteohub,2013-06-06 13:08:00,
2013-06-06 09:13:00,60.6,60.3,30.03,North,0,2.0,5.0,99,0.04,,,0.21,meteohub,2013-06-06 13:13:00,
2013-06-06 09:18:00,60.6,60.3,30.03,North,0,4.0,5.0,99,0.05,,,0.22,meteohub,2013-06-06 13:18:00,
2013-06-06 09:23:00,60.6,60.3,30.03,NW,315,3.0,5.0,99,0.05,,,0.22,meteohub,2013-06-06 13:23:00,
2013-06-06 09:28:00,60.6,60.3,30.03,NW,315,2.0,4.0,99,0.04,,,0.22,meteohub,2013-06-06 13:28:00,
2013-06-06 09:33:00,60.6,60.3,30.02,NNW,338,2.0,4.0,99,0.04,,,0.22,meteohub,2013-06-06 13:33:00,
2013-06-06 09:38:00,60.8,60.3,30.02,North,0,2.0,4.0,98,0.05,,,0.24,meteohub,2013-06-06 13:38:00,
2013-06-06 09:43:00,61.0,60.4,30.02,West,270,2.0,3.0,98,0.04,,,0.24,meteohub,2013-06-06 13:43:00,
2013-06-06 09:48:00,61.0,60.4,30.03,SW,225,1.0,2.0,98,0.04,,,0.24,meteohub,2013-06-06 13:48:00,
2013-06-06 09:53:00,61.0,60.4,30.03,NW,315,1.0,2.0,98,0.05,,,0.25,meteohub,2013-06-06 13:53:00,
2013-06-06 09:58:00,61.0,60.4,30.02,NW,315,3.0,3.0,98,0.05,,,0.25,meteohub,2013-06-06 13:58:00,
2013-06-06 10:03:00,61.2,60.6,30.02,NW,315,2.0,3.0,98,0.05,,,0.25,meteohub,2013-06-06 14:03:00,
2013-06-06 10:08:00,61.2,60.6,30.02,NE,45,3.0,4.0,98,0.04,,,0.25,meteohub,2013-06-06 14:08:00,
2013-06-06 10:13:00,61.2,60.6,30.02,South,180,1.0,4.0,98,0.05,,,0.26,meteohub,2013-06-06 14:13:00,
2013-06-06 10:18:00,61.2,60.6,30.02,NW,315,4.0,4.0,98,0.04,,,0.26,meteohub,2013-06-06 14:18:00,
2013-06-06 10:23:00,61.2,60.6,30.02,NNW,338,3.0,4.0,98,0.04,,,0.26,meteohub,2013-06-06 14:23:00,
2013-06-06 10:28:00,61.0,60.4,30.02,South,180,2.0,4.0,98,0.05,,,0.27,meteohub,2013-06-06 14:28:00,
2013-06-06 10:33:00,61.0,60.4,30.02,South,180,2.0,4.0,98,0.05,,,0.27,meteohub,2013-06-06 14:33:00,
2013-06-06 10:38:00,61.2,60.6,30.02,NE,45,2.0,3.0,98,0.04,,,0.27,meteohub,2013-06-06 14:38:00,
2013-06-06 10:43:00,61.2,60.6,30.02,NW,315,2.0,3.0,98,0.05,,,0.28,meteohub,2013-06-06 14:43:00,
2013-06-06 10:48:00,61.3,60.8,30.02,NW,315,2.0,2.0,98,0.05,,,0.28,meteohub,2013-06-06 14:48:00,
2013-06-06 10:53:00,61.3,60.8,30.02,NNW,338,2.0,2.0,98,0.04,,,0.28,meteohub,2013-06-06 14:53:00,
2013-06-06 10:58:00,61.3,60.8,30.02,NW,315,2.0,2.0,98,0.05,,,0.30,meteohub,2013-06-06 14:58:00,
2013-06-06 11:03:00,61.3,60.8,30.01,NW,315,2.0,3.0,98,0.05,,,0.30,meteohub,2013-06-06 15:03:00,
2013-06-06 11:08:00,61.3,60.8,30.01,NW,315,2.0,3.0,98,0.05,,,0.30,meteohub,2013-06-06 15:08:00,
2013-06-06 11:13:00,61.3,60.8,30.01,NW,315,2.0,3.0,98,0.04,,,0.30,meteohub,2013-06-06 15:13:00,
2013-06-06 11:18:00,61.7,61.2,30.02,North,0,2.0,2.0,98,0.04,,,0.30,meteohub,2013-06-06 15:18:00,
2013-06-06 11:23:00,61.7,61.2,30.02,NW,315,2.0,2.0,98,0.04,,,0.31,meteohub,2013-06-06 15:23:00,
2013-06-06 11:28:00,61.7,61.2,30.01,NW,315,3.0,3.0,98,0.04,,,0.31,meteohub,2013-06-06 15:28:00,
2013-06-06 11:33:00,61.7,61.2,30.01,NW,315,3.0,4.0,98,0.05,,,0.32,meteohub,2013-06-06 15:33:00,
2013-06-06 11:38:00,62.1,61.5,30.01,North,0,4.0,4.0,98,0.05,,,0.32,meteohub,2013-06-06 15:38:00,
2013-06-06 11:43:00,62.2,61.7,30.01,North,0,2.0,4.0,98,0.04,,,0.32,meteohub,2013-06-06 15:43:00,
2013-06-06 11:48:00,62.2,61.7,30.01,North,0,3.0,4.0,98,0.04,,,0.32,meteohub,2013-06-06 15:48:00,
2013-06-06 11:53:00,62.4,61.9,30.02,NNW,338,3.0,4.0,98,0.05,,,0.33,meteohub,2013-06-06 15:53:00,
2013-06-06 11:58:00,62.6,61.7,30.01,SW,225,0.0,4.0,97,0.04,,,0.33,meteohub,2013-06-06 15:58:00,
2013-06-06 12:03:00,62.6,61.7,30.01,SW,225,0.0,4.0,97,0.05,,,0.34,meteohub,2013-06-06 16:03:00,
2013-06-06 12:08:00,62.6,61.7,30.01,North,0,2.0,4.0,97,0.05,,,0.34,meteohub,2013-06-06 16:08:00,
2013-06-06 12:14:00,62.8,61.9,30.01,North,0,2.0,4.0,97,0.04,,,0.34,meteohub,2013-06-06 16:14:00,
2013-06-06 12:19:00,63.0,62.1,30.01,NW,315,0.0,4.0,97,0.04,,,0.34,meteohub,2013-06-06 16:19:00,
2013-06-06 12:24:00,63.0,62.1,30.01,NE,45,0.0,2.0,97,0.04,,,0.34,meteohub,2013-06-06 16:24:00,
2013-06-06 12:29:00,62.8,61.9,30.01,NW,315,0.0,2.0,97,0.02,,,0.34,meteohub,2013-06-06 16:29:00,
2013-06-06 12:34:00,62.8,61.9,30.01,NW,315,0.0,2.0,97,0.04,,,0.35,meteohub,2013-06-06 16:34:00,
2013-06-06 12:39:00,63.0,62.1,30.01,NE,45,2.0,2.0,97,0.04,,,0.35,meteohub,2013-06-06 16:39:00,
2013-06-06 12:44:00,63.0,62.1,30.01,NE,45,2.0,2.0,97,0.05,,,0.37,meteohub,2013-06-06 16:44:00,
2013-06-06 12:49:00,63.0,62.1,30.01,NW,315,2.0,3.0,97,0.05,,,0.37,meteohub,2013-06-06 16:49:00,
2013-06-06 12:54:00,63.0,62.1,30.01,NW,315,2.0,3.0,97,0.04,,,0.37,meteohub,2013-06-06 16:54:00,
2013-06-06 12:59:00,63.0,62.1,30.00,West,270,1.0,3.0,97,0.04,,,0.37,meteohub,2013-06-06 16:59:00,
2013-06-06 13:04:00,63.3,62.4,30.00,North,0,3.0,3.0,97,0.04,,,0.38,meteohub,2013-06-06 17:04:00,
2013-06-06 13:09:00,63.3,62.4,29.99,North,0,3.0,3.0,97,0.04,,,0.38,meteohub,2013-06-06 17:09:00,
2013-06-06 13:14:00,63.1,62.2,30.00,NW,315,2.0,4.0,97,0.05,,,0.39,meteohub,2013-06-06 17:14:00,
2013-06-06 13:19:00,63.1,62.2,29.99,North,0,3.0,4.0,97,0.05,,,0.39,meteohub,2013-06-06 17:19:00,
2013-06-06 13:24:00,63.1,62.2,29.99,North,0,4.0,4.0,97,0.05,,,0.39,meteohub,2013-06-06 17:24:00,
2013-06-06 13:29:00,63.5,62.6,29.99,NW,315,2.0,5.0,97,0.04,,,0.39,meteohub,2013-06-06 17:29:00,
2013-06-06 13:34:00,63.7,62.8,29.99,NE,45,4.0,5.0,97,0.04,,,0.39,meteohub,2013-06-06 17:34:00,
2013-06-06 13:39:00,63.9,63.0,29.98,North,0,4.0,5.0,97,0.05,,,0.40,meteohub,2013-06-06 17:39:00,
2013-06-06 13:44:00,63.7,62.8,29.98,NW,315,4.0,4.0,97,0.04,,,0.40,meteohub,2013-06-06 17:44:00,
2013-06-06 13:49:00,63.5,62.6,29.98,NNW,338,6.0,6.0,97,0.04,,,0.40,meteohub,2013-06-06 17:49:00,
2013-06-06 13:54:00,63.3,62.4,29.98,NW,315,3.0,5.0,97,0.05,,,0.41,meteohub,2013-06-06 17:54:00,
2013-06-06 13:59:00,63.3,62.4,29.98,North,0,2.0,6.0,97,0.05,,,0.41,meteohub,2013-06-06 17:59:00,
2013-06-06 14:04:00,63.1,62.2,29.98,North,0,2.0,6.0,97,0.04,,,0.41,meteohub,2013-06-06 18:04:00,
2013-06-06 14:09:00,63.1,62.2,29.97,North,0,4.0,6.0,97,0.04,,,0.41,meteohub,2013-06-06 18:09:00,
2013-06-06 14:14:00,63.0,62.1,29.97,NE,45,4.0,4.0,97,0.04,,,0.43,meteohub,2013-06-06 18:14:00,
2013-06-06 14:19:00,63.0,62.1,29.97,North,0,4.0,4.0,97,0.04,,,0.43,meteohub,2013-06-06 18:19:00,
2013-06-06 14:24:00,63.0,62.1,29.97,NW,315,2.0,6.0,97,0.04,,,0.43,meteohub,2013-06-06 18:24:00,
2013-06-06 14:29:00,63.0,62.1,29.97,NW,315,3.0,6.0,97,0.04,,,0.43,meteohub,2013-06-06 18:29:00,
2013-06-06 14:34:00,62.8,61.9,29.97,NW,315,4.0,6.0,97,0.04,,,0.44,meteohub,2013-06-06 18:34:00,
2013-06-06 14:39:00,63.0,62.1,29.96,NW,315,4.0,5.0,97,0.04,,,0.44,meteohub,2013-06-06 18:39:00,
2013-06-06 14:44:00,63.0,62.1,29.96,NNW,338,4.0,5.0,97,0.04,,,0.44,meteohub,2013-06-06 18:44:00,
2013-06-06 14:49:00,62.8,61.9,29.96,North,0,4.0,5.0,97,0.02,,,0.44,meteohub,2013-06-06 18:49:00,
2013-06-06 14:54:00,62.8,61.9,29.96,NW,315,4.0,6.0,97,0.04,,,0.45,meteohub,2013-06-06 18:54:00,
2013-06-06 14:59:00,62.8,61.9,29.95,NE,45,3.0,6.0,97,0.04,,,0.45,meteohub,2013-06-06 18:59:00,
2013-06-06 15:04:00,63.0,62.1,29.96,NE,45,4.0,6.0,97,0.04,,,0.45,meteohub,2013-06-06 19:04:00,
2013-06-06 15:09:00,63.0,62.1,29.96,North,0,2.0,5.0,97,0.04,,,0.45,meteohub,2013-06-06 19:09:00,
2013-06-06 15:14:00,63.1,62.2,29.95,NW,315,4.0,4.0,97,0.02,,,0.45,meteohub,2013-06-06 19:14:00,
2013-06-06 15:19:00,63.1,62.2,29.95,North,0,2.0,4.0,97,0.04,,,0.46,meteohub,2013-06-06 19:19:00,
2013-06-06 15:24:00,63.5,62.6,29.95,NE,45,2.0,4.0,97,0.04,,,0.46,meteohub,2013-06-06 19:24:00,
2013-06-06 15:29:00,63.9,63.0,29.94,SW,225,3.0,4.0,97,0.02,,,0.46,meteohub,2013-06-06 19:29:00,
2013-06-06 15:34:00,64.0,63.1,29.94,NW,315,4.0,4.0,97,0.02,,,0.46,meteohub,2013-06-06 19:34:00,
2013-06-06 15:39:00,64.0,63.1,29.94,North,0,4.0,4.0,97,0.02,,,0.46,meteohub,2013-06-06 19:39:00,
2013-06-06 15:44:00,64.2,63.3,29.94,NE,45,5.0,5.0,97,0.02,,,0.46,meteohub,2013-06-06 19:44:00,
2013-06-06 15:49:00,64.4,64.0,29.94,North,0,7.0,7.0,99,0.02,,,0.46,meteohub,2013-06-06 19:49:00,
2013-06-06 15:54:00,64.6,64.2,29.94,North,0,6.0,8.0,99,0.02,,,0.47,meteohub,2013-06-06 19:54:00,
2013-06-06 15:59:00,64.4,64.0,29.94,North,0,7.0,9.0,99,0.02,,,0.47,meteohub,2013-06-06 19:59:00,
2013-06-06 16:04:00,64.4,64.0,29.94,NW,315,8.0,9.0,99,0.02,,,0.47,meteohub,2013-06-06 20:04:00,
2013-06-06 16:09:00,64.4,64.0,29.94,NE,45,7.0,9.0,99,0.02,,,0.47,meteohub,2013-06-06 20:09:00,
2013-06-06 16:14:00,64.6,64.2,29.94,North,0,4.0,9.0,99,0.02,,,0.47,meteohub,2013-06-06 20:14:00,
2013-06-06 16:19:00,64.4,64.0,29.94,NNW,338,5.0,9.0,99,0.01,,,0.47,meteohub,2013-06-06 20:19:00,
2013-06-06 16:24:00,64.4,64.0,29.94,North,0,5.0,8.0,99,0.01,,,0.47,meteohub,2013-06-06 20:24:00,
2013-06-06 16:29:00,64.6,64.2,29.94,NNW,338,5.0,5.0,99,0.02,,,0.48,meteohub,2013-06-06 20:29:00,
2013-06-06 16:34:00,64.8,64.4,29.94,NE,45,2.0,7.0,99,0.02,,,0.48,meteohub,2013-06-06 20:34:00,
2013-06-06 16:39:00,65.3,64.9,29.94,NW,315,3.0,7.0,99,0.02,,,0.48,meteohub,2013-06-06 20:39:00,
2013-06-06 16:44:00,65.5,65.1,29.94,North,0,3.0,7.0,99,0.02,,,0.48,meteohub,2013-06-06 20:44:00,
2013-06-06 16:49:00,65.5,65.1,29.93,WNW,293,2.0,6.0,99,0.02,,,0.48,meteohub,2013-06-06 20:49:00,
2013-06-06 16:54:00,65.5,65.1,29.93,North,0,4.0,5.0,99,0.01,,,0.48,meteohub,2013-06-06 20:54:00,
2013-06-06 16:59:00,65.5,65.1,29.93,North,0,5.0,6.0,99,0.01,,,0.48,meteohub,2013-06-06 20:59:00,
2013-06-06 17:04:00,65.5,65.1,29.92,NW,315,4.0,7.0,99,0.04,,,0.51,meteohub,2013-06-06 21:04:00,
2013-06-06 17:09:00,65.7,65.3,29.93,NW,315,4.0,7.0,99,0.11,,,0.58,meteohub,2013-06-06 21:09:00,
2013-06-06 17:14:00,65.7,65.3,29.92,NW,315,3.0,7.0,99,0.11,,,0.58,meteohub,2013-06-06 21:14:00,
2013-06-06 17:19:00,65.7,65.3,29.92,NW,315,7.0,7.0,99,0.11,,,0.58,meteohub,2013-06-06 21:19:00,
2013-06-06 17:24:00,65.7,65.3,29.92,North,0,2.0,6.0,99,0.11,,,0.58,meteohub,2013-06-06 21:24:00,
2013-06-06 17:29:00,65.7,65.3,29.92,North,0,4.0,7.0,99,0.09,,,0.58,meteohub,2013-06-06 21:29:00,
2013-06-06 17:34:00,65.7,65.3,29.92,North,0,4.0,7.0,99,0.09,,,0.58,meteohub,2013-06-06 21:34:00,
2013-06-06 17:39:00,65.8,65.5,29.92,SE,135,0.0,6.0,99,0.09,,,0.58,meteohub,2013-06-06 21:39:00,
2013-06-06 17:44:00,65.8,65.5,29.91,NE,45,0.0,4.0,99,0.09,,,0.58,meteohub,2013-06-06 21:44:00,
2013-06-06 17:49:00,65.8,65.5,29.91,North,0,2.0,4.0,99,0.09,,,0.58,meteohub,2013-06-06 21:49:00,
2013-06-06 17:54:00,66.0,65.7,29.91,North,0,2.0,4.0,99,0.09,,,0.58,meteohub,2013-06-06 21:54:00,
2013-06-06 17:59:00,66.0,65.7,29.91,NW,315,2.0,4.0,99,0.09,,,0.58,meteohub,2013-06-06 21:59:00,
2013-06-06 18:04:00,66.0,65.7,29.91,North,0,3.0,4.0,99,0.00,,,0.58,meteohub,2013-06-06 22:04:00,
2013-06-06 18:09:00,66.0,65.7,29.91,North,0,4.0,4.0,99,0.00,,,0.58,meteohub,2013-06-06 22:09:00,
2013-06-06 18:14:00,66.2,65.7,29.91,SE,135,1.0,4.0,98,0.00,,,0.58,meteohub,2013-06-06 22:14:00,
2013-06-06 18:19:00,66.4,65.8,29.91,North,0,2.0,4.0,98,0.00,,,0.58,meteohub,2013-06-06 22:19:00,
2013-06-06 18:24:00,66.4,65.8,29.91,North,0,2.0,4.0,98,0.00,,,0.58,meteohub,2013-06-06 22:24:00,
2013-06-06 18:29:00,66.4,65.8,29.91,North,0,2.0,4.0,98,0.00,,,0.58,meteohub,2013-06-06 22:29:00,
2013-06-06 18:34:00,66.6,66.0,29.90,North,0,0.0,3.0,98,0.00,,,0.58,meteohub,2013-06-06 22:34:00,
2013-06-06 18:39:00,66.6,66.0,29.90,North,0,3.0,3.0,98,0.00,,,0.58,meteohub,2013-06-06 22:39:00,
2013-06-06 18:44:00,66.6,66.0,29.91,NE,45,0.0,3.0,98,0.00,,,0.58,meteohub,2013-06-06 22:44:00,
2013-06-06 18:49:00,66.7,65.8,29.91,NE,45,0.0,3.0,97,0.00,,,0.58,meteohub,2013-06-06 22:49:00,
2013-06-06 18:54:00,66.6,65.7,29.91,North,0,0.0,3.0,97,0.00,,,0.58,meteohub,2013-06-06 22:54:00,
2013-06-06 19:00:00,66.6,65.7,29.91,North,0,0.0,3.0,97,0.00,,,0.58,meteohub,2013-06-06 23:00:00,
2013-06-06 19:05:00,66.6,65.7,29.90,South,180,0.0,0.0,97,0.00,,,0.58,meteohub,2013-06-06 23:05:00,
2013-06-06 19:10:00,66.6,66.0,29.90,South,180,0.0,0.0,98,0.00,,,0.58,meteohub,2013-06-06 23:10:00,
2013-06-06 19:15:00,66.6,66.0,29.90,North,0,0.0,0.0,98,0.00,,,0.58,meteohub,2013-06-06 23:15:00,
2013-06-06 19:20:00,66.6,66.0,29.90,North,0,1.0,0.0,98,0.00,,,0.58,meteohub,2013-06-06 23:20:00,
2013-06-06 19:25:00,66.4,65.8,29.90,SW,225,1.0,0.0,98,0.00,,,0.58,meteohub,2013-06-06 23:25:00,
2013-06-06 19:30:00,66.0,65.7,29.90,NW,315,1.0,4.0,99,0.00,,,0.58,meteohub,2013-06-06 23:30:00,
2013-06-06 19:35:00,65.8,65.3,29.90,NW,315,2.0,4.0,98,0.00,,,0.58,meteohub,2013-06-06 23:35:00,
2013-06-06 19:40:00,65.5,64.9,29.89,North,0,3.0,4.0,98,0.00,,,0.58,meteohub,2013-06-06 23:40:00,
2013-06-06 19:45:00,65.1,64.6,29.89,North,0,3.0,4.0,98,0.00,,,0.58,meteohub,2013-06-06 23:45:00,
2013-06-06 19:50:00,64.9,64.4,29.90,NW,315,2.0,4.0,98,0.00,,,0.58,meteohub,2013-06-06 23:50:00,
2013-06-06 19:55:00,64.8,64.2,29.90,NE,45,0.0,4.0,98,0.00,,,0.58,meteohub,2013-06-06 23:55:00,
2013-06-06 20:00:00,64.8,64.4,29.89,North,0,0.0,3.0,99,0.00,,,0.58,meteohub,2013-06-07 00:00:00,
2013-06-06 20:05:00,64.8,64.4,29.89,North,0,0.0,2.0,99,0.00,,,0.00,meteohub,2013-06-07 00:05:00,
2013-06-06 20:10:00,64.8,64.4,29.89,North,0,1.0,3.0,99,0.00,,,0.00,meteohub,2013-06-07 00:10:00,
2013-06-06 20:15:00,64.8,64.4,29.90,North,0,2.0,3.0,99,0.00,,,0.00,meteohub,2013-06-07 00:15:00,
2013-06-06 20:20:00,64.8,64.4,29.89,SE,135,0.0,3.0,99,0.00,,,0.00,meteohub,2013-06-07 00:20:00,
2013-06-06 20:25:00,64.8,64.4,29.89,NW,315,2.0,2.0,99,0.00,,,0.00,meteohub,2013-06-07 00:25:00,
2013-06-06 20:30:00,64.8,64.4,29.89,North,0,0.0,2.0,99,0.00,,,0.00,meteohub,2013-06-07 00:30:00,
2013-06-06 20:35:00,64.8,64.4,29.89,NW,315,0.0,2.0,99,0.00,,,0.00,meteohub,2013-06-07 00:35:00,
2013-06-06 20:40:00,64.8,64.4,29.89,South,180,0.0,2.0,99,0.00,,,0.00,meteohub,2013-06-07 00:40:00,
2013-06-06 20:45:00,64.8,64.4,29.89,South,180,0.0,0.0,99,0.00,,,0.00,meteohub,2013-06-07 00:45:00,
2013-06-06 20:50:00,64.9,64.6,29.90,South,180,0.0,0.0,99,0.00,,,0.00,meteohub,2013-06-07 00:50:00,
2013-06-06 20:55:00,64.9,64.6,29.90,NE,45,0.0,0.0,99,0.00,,,0.00,meteohub,2013-06-07 00:55:00,
2013-06-06 21:00:00,64.9,64.6,29.90,West,270,0.0,2.0,99,0.00,,,0.00,meteohub,2013-06-07 01:00:00,
2013-06-06 21:05:00,64.9,64.6,29.90,South,180,2.0,2.0,99,0.00,,,0.00,meteohub,2013-06-07 01:05:00,
2013-06-06 21:10:00,64.9,64.6,29.90,SE,135,0.0,2.0,99,0.00,,,0.00,meteohub,2013-06-07 01:10:00,
2013-06-06 21:15:00,64.8,64.4,29.90,SE,135,0.0,2.0,99,0.00,,,0.00,meteohub,2013-06-07 01:15:00,
2013-06-06 21:20:00,64.8,64.4,29.90,SE,135,0.0,2.0,99,0.00,,,0.00,meteohub,2013-06-07 01:20:00,
2013-06-06 21:25:00,64.8,64.4,29.90,NE,45,0.0,0.0,99,0.00,,,0.00,meteohub,2013-06-07 01:25:00,
2013-06-06 21:30:00,64.8,64.4,29.91,East,90,0.0,0.0,99,0.00,,,0.00,meteohub,2013-06-07 01:30:00,
2013-06-06 21:35:00,64.6,64.2,29.91,East,90,0.0,0.0,99,0.00,,,0.00,meteohub,2013-06-07 01:35:00,
2013-06-06 21:40:00,64.6,64.2,29.91,East,90,0.0,0.0,99,0.00,,,0.00,meteohub,2013-06-07 01:40:00,
2013-06-06 21:45:00,64.6,64.2,29.91,East,90,0.0,0.0,99,0.00,,,0.00,meteohub,2013-06-07 01:45:00,
2013-06-06 21:50:00,64.6,64.2,29.91,East,90,0.0,0.0,99,0.00,,,0.00,meteohub,2013-06-07 01:50:00,
2013-06-06 21:55:00,64.6,64.2,29.91,East,90,0.0,0.0,99,0.00,,,0.00,meteohub,2013-06-07 01:55:00,
2013-06-06 22:00:00,64.6,64.2,29.91,East,90,0.0,0.0,99,0.00,,,0.00,meteohub,2013-06-07 02:00:00,
2013-06-06 22:05:00,64.6,64.2,29.91,East,90,0.0,0.0,99,0.00,,,0.00,meteohub,2013-06-07 02:05:00,
2013-06-06 22:11:00,64.6,64.2,29.92,SE,135,0.0,0.0,99,0.00,,,0.00,meteohub,2013-06-07 02:11:00,
2013-06-06 22:16:00,64.6,64.2,29.92,SE,135,0.0,0.0,99,0.00,,,0.00,meteohub,2013-06-07 02:16:00,
2013-06-06 22:21:00,64.6,64.2,29.92,SE,135,0.0,0.0,99,0.00,,,0.00,meteohub,2013-06-07 02:21:00,
2013-06-06 22:26:00,64.6,64.2,29.92,SE,135,0.0,0.0,99,0.00,,,0.00,meteohub,2013-06-07 02:26:00,
2013-06-06 22:31:00,64.6,64.2,29.92,SE,135,0.0,0.0,99,0.00,,,0.00,meteohub,2013-06-07 02:31:00,
2013-06-06 22:36:00,64.6,64.2,29.92,South,180,0.0,0.0,99,0.00,,,0.00,meteohub,2013-06-07 02:36:00,
2013-06-06 22:41:00,64.6,64.2,29.91,West,270,0.0,0.0,99,0.00,,,0.00,meteohub,2013-06-07 02:41:00,
2013-06-06 22:46:00,64.6,64.2,29.92,South,180,0.0,0.0,99,0.00,,,0.00,meteohub,2013-06-07 02:46:00,
2013-06-06 22:51:00,64.6,64.2,29.92,South,180,0.0,0.0,99,0.00,,,0.00,meteohub,2013-06-07 02:51:00,
2013-06-06 22:56:00,64.6,64.2,29.92,NE,45,0.0,0.0,99,0.00,,,0.00,meteohub,2013-06-07 02:56:00,
2013-06-06 23:01:00,64.6,64.2,29.92,NW,315,0.0,0.0,99,0.00,,,0.00,meteohub,2013-06-07 03:01:00,
2013-06-06 23:06:00,64.6,64.2,29.92,NW,315,2.0,0.0,99,0.00,,,0.00,meteohub,2013-06-07 03:06:00,
2013-06-06 23:11:00,64.4,64.0,29.92,North,0,1.0,2.0,99,0.00,,,0.00,meteohub,2013-06-07 03:11:00,
2013-06-06 23:16:00,64.4,64.0,29.92,North,0,1.0,2.0,99,0.00,,,0.00,meteohub,2013-06-07 03:16:00,
2013-06-06 23:21:00,64.4,64.0,29.92,North,0,1.0,2.0,99,0.00,,,0.00,meteohub,2013-06-07 03:21:00,
2013-06-06 23:26:00,64.2,63.3,29.92,North,0,2.0,2.0,97,0.00,,,0.00,meteohub,2013-06-07 03:26:00,
2013-06-06 23:31:00,64.2,63.3,29.92,East,90,2.0,2.0,97,0.00,,,0.00,meteohub,2013-06-07 03:31:00,
2013-06-06 23:36:00,64.2,63.3,29.91,North,0,2.0,2.0,97,0.00,,,0.00,meteohub,2013-06-07 03:36:00,
2013-06-06 23:41:00,64.0,63.1,29.91,North,0,3.0,3.0,97,0.00,,,0.00,meteohub,2013-06-07 03:41:00,
2013-06-06 23:46:00,64.0,63.1,29.91,NW,315,2.0,3.0,97,0.00,,,0.00,meteohub,2013-06-07 03:46:00,
2013-06-06 23:51:00,63.9,63.0,29.91,NNW,338,3.0,3.0,97,0.00,,,0.00,meteohub,2013-06-07 03:51:00,
2013-06-06 23:56:00,63.9,63.0,29.91,North,0,2.0,3.0,97,0.00,,,0.00,meteohub,2013-06-07 03:56:00,